Theta_e
354 348 349 354 345 351 347 348 355 355 357 355 355 353 353 347 343 341 337 335 337 327
352 352 351 354 356 351 352 350 352 355 356 354 351 349 349 340 337 335 335 332 334 327
346 349 351 354 353 351 353 353 352 353 348 348 344 343 343 337 334 331 328 326 325 325
345 348 349 349 343 349 351 350 348 344 342 340 339 336 338 331 328 323 323 323 321 320
342 347 347 345 345 344 345 345 337 336 331 330 329 326 323 322 321 317 318 318 317 315
343 344 347 347 346 345 342 334 330 325 327 324 321 320 317 315 315 315 315 316 315 313
341 342 347 343 340 336 334 327 328 324 319 316 313 313 313 313 312 309 309 312 312 311
341 343 344 339 329 325 323 321 317 314 313 312 313 310 308 307 306 307 305 305 304 305
338 336 337 334 329 324 319 316 316 313 312 311 312 306 307 307 308 307 304 302 303 303
336 329 329 328 326 322 318 316 315 314 313 308 306 303 303 306 308 305 305 307 305 302
330 326 323 320 319 318 317 314 311 311 310 307 304 300 300 304 308 307 308 308 308 308
325 323 321 317 317 315 312 310 308 307 306 303 301 298 299 305 309 307 304 305 304 302
324 324 319 317 314 314 310 308 305 303 302 301 301 297 298 304 304 301 299 300 298 295
323 321 317 315 314 309 310 305 301 301 301 302 301 299 297 298 301 299 297 296 294 295
Wind_Speed
16 12 12 11 10 11 11 12 14 13 12 12 10 9 8 7 6 8 7 6 5 5
13 15 13 15 13 12 9 12 15 15 14 12 10 11 9 8 8 9 7 8 6 7
11 14 14 12 14 10 7 11 16 14 13 13 12 12 12 10 9 10 7 7 9 6
14 13 12 13 10 10 11 11 13 13 14 14 14 14 12 12 13 13 11 10 9 9
12 13 12 13 11 9 11 11 11 13 15 15 15 14 15 13 12 12 14 11 10 8
12 10 13 13 13 14 14 14 17 20 15 18 15 17 15 14 11 14 9 9 10 10
13 11 11 13 10 11 14 15 15 17 18 15 18 18 15 13 15 13 10 12 11 10
13 11 13 16 19 17 13 9 14 16 19 17 18 15 15 13 13 14 13 14 12 11
14 15 17 20 18 15 16 15 5 12 18 18 9 25 26 21 16 17 16 14 12 9
20 16 15 15 14 12 16 15 15 10 12 15 15 20 19 19 15 14 15 14 11 9
17 17 16 17 17 15 16 15 13 9 9 15 14 14 18 19 17 12 15 13 11 10
16 19 18 18 18 17 17 17 17 10 14 11 13 13 12 18 15 15 15 14 12 11
17 20 19 19 19 17 17 16 16 18 12 13 15 13 9 13 12 16 10 14 13 15
17 19 22 20 18 19 19 17 22 15 13 13 12 9 13 14 10 11 12 13 11 9
Wind_Direction
212 211 213 219 220 205 195 180 168 184 171 177 167 139 131 130 149 125 119 118 78 97
219 226 204 213 222 245 188 166 161 179 158 166 140 127 132 122 119 114 114 104 92 84
220 223 223 214 214 207 231 153 161 161 134 132 127 132 127 120 127 109 101 92 91 98
208 202 215 206 197 182 186 157 170 131 133 124 127 122 114 109 112 107 98 92 95 72
213 187 199 200 192 190 152 145 122 114 112 118 118 112 103 109 116 108 107 106 98 91
189 202 193 193 179 176 150 131 126 122 129 124 114 112 109 112 113 100 91 104 100 84
188 182 176 171 107 134 127 129 133 122 119 123 118 102 105 110 104 96 96 91 73 72
177 149 152 140 114 101 95 95 131 128 130 121 118 117 118 118 107 110 103 85 78 69
159 140 156 143 140 130 119 120 137 136 139 135 150 146 141 145 139 127 107 111 107 105
129 138 146 157 146 141 138 133 137 183 151 128 121 133 132 136 116 123 128 124 127 121
139 136 137 139 137 142 130 129 114 127 112 125 133 145 128 119 116 129 115 117 111 109
147 134 137 137 134 129 123 115 107 97 99 120 127 91 117 122 122 111 110 111 118 114
151 144 136 133 129 127 125 130 123 106 121 130 124 125 116 120 119 108 113 99 86 61
149 137 134 129 130 127 131 126 97 112 130 137 134 131 112 116 124 128 132 113 113 93